Location: Chateh
(58.6667°N, 118.6000°W)
Time: 08:12:18
(UTC+00:00)

O/OREOS (USA 219) - Pass Details

Date: 10 December 2023
Orbit: 621 x 646 km, 72.0° (Epoch: 22 May)

Event Time Altitude Azimuth Distance (km) Brightness Sun altitude
Exits shadow 13:07:29 20° 3° (N) 1,452 ? -24.5°
Maximum altitude 13:08:44 23° 27° (NNE) 1,358 ? -24.4°
Drops below altitude 10° 13:12:19 10° 80° (E) 2,014 ? -23.9°
Sets 13:15:01 0° 95° (E) 2,924 ? -23.5°
